| time (UTC) | temp C | wind direction | speed KPH | gust KPH | rain 1hr cm | rain 24hr cm | rain mn cm | humidity % | barometer mb |
| 20260508164517 | 21 | 23 | 3.2 | 8.0 | 0.00 | 0.38 | 0.03 | 41 | 1017.0 |
| 20260508163517 | 22 | 135 | 1.6 | 4.8 | 0.00 | 0.41 | 0.03 | 42 | 1017.1 |
| 20260508162517 | 22 | 90 | 1.6 | 6.4 | 0.00 | 0.41 | 0.03 | 42 | 1017.2 |
| 20260508161517 | 22 | 90 | 3.2 | 6.4 | 0.00 | 0.41 | 0.03 | 42 | 1017.4 |
| 20260508160516 | 22 | 45 | 1.6 | 6.4 | 0.00 | 0.41 | 0.03 | 46 | 1017.5 |
| 20260508155517 | 21 | 0.0 | 3.2 | 0.00 | 0.41 | 0.03 | 50 | 1017.6 | |
| 20260508154516 | 21 | 0 | 1.6 | 3.2 | 0.00 | 0.41 | 0.03 | 50 | 1017.7 |
| 20260508153516 | 20 | 135 | 1.6 | 4.8 | 0.00 | 0.41 | 0.03 | 46 | 1017.8 |
| 20260508152516 | 20 | 135 | 3.2 | 9.7 | 0.00 | 0.41 | 0.03 | 51 | 1017.9 |
| 20260508151517 | 20 | 23 | 1.6 | 4.8 | 0.00 | 0.41 | 0.03 | 53 | 1017.8 |
| 20260508150516 | 20 | 158 | 3.2 | 9.7 | 0.00 | 0.41 | 0.03 | 50 | 1017.7 |
| 20260508145516 | 19 | 23 | 1.6 | 4.8 | 0.00 | 0.41 | 0.03 | 55 | 1017.7 |
| 20260508144516 | 19 | 23 | 1.6 | 8.0 | 0.00 | 0.41 | 0.03 | 55 | 1017.9 |
| 20260508143516 | 19 | 158 | 3.2 | 8.0 | 0.00 | 0.43 | 0.03 | 58 | 1017.9 |
| 20260508142516 | 18 | 158 | 3.2 | 8.0 | 0.00 | 0.46 | 0.03 | 54 | 1018.0 |
| 20260508141516 | 18 | 135 | 3.2 | 6.4 | 0.00 | 0.46 | 0.03 | 54 | 1018.0 |
| 20260508140516 | 18 | 158 | 1.6 | 6.4 | 0.00 | 0.48 | 0.03 | 63 | 1018.1 |
| 20260508135516 | 17 | 0 | 3.2 | 6.4 | 0.00 | 0.48 | 0.03 | 62 | 1018.0 |
| 20260508134516 | 17 | 135 | 1.6 | 6.4 | 0.00 | 0.51 | 0.03 | 66 | 1017.9 |
| 20260508133516 | 16 | 23 | 1.6 | 4.8 | 0.00 | 0.51 | 0.03 | 69 | 1017.8 |
| 20260508132516 | 16 | 23 | 1.6 | 4.8 | 0.00 | 0.51 | 0.03 | 74 | 1017.7 |
| 20260508131516 | 15 | 0 | 3.2 | 6.4 | 0.00 | 0.51 | 0.03 | 72 | 1017.6 |
| 20260508130516 | 14 | 45 | 1.6 | 3.2 | 0.00 | 0.51 | 0.03 | 85 | 1017.7 |
| 20260508125516 | 13 | 203 | 1.6 | 4.8 | 0.03 | 0.51 | 0.03 | 91 | 1017.5 |
| 20260508124516 | 13 | 113 | 1.6 | 4.8 | 0.03 | 0.51 | 0.03 | 94 | 1017.4 |
| 20260508123516 | 13 | 0.0 | 3.2 | 0.03 | 0.51 | 0.03 | 97 | 1017.3 | |
| 20260508122516 | 13 | 0.0 | 0.0 | 0.03 | 0.51 | 0.03 | 98 | 1017.3 | |
| 20260508121516 | 13 | 0.0 | 0.0 | 0.03 | 0.53 | 0.03 | 98 | 1017.1 | |
| 20260508120516 | 12 | 0.0 | 0.0 | 0.03 | 0.56 | 0.03 | 98 | 1016.9 | |
| 20260508115516 | 11 | 0.0 | 3.2 | 0.00 | 0.61 | 0.00 | 97 | 1016.7 | |
| 20260508114516 | 10 | 0.0 | 1.6 | 0.00 | 0.69 | 0.00 | 97 | 1016.6 | |
| 20260508113516 | 10 | 0.0 | 1.6 | 0.00 | 0.69 | 0.00 | 97 | 1016.3 | |
| 20260508112516 | 9 | 0.0 | 1.6 | 0.00 | 0.69 | 0.00 | 97 | 1016.2 | |
| 20260508111516 | 9 | 0.0 | 0.0 | 0.00 | 0.71 | 0.00 | 97 | 1016.0 | |
| 20260508110516 | 9 | 0.0 | 0.0 | 0.00 | 0.71 | 0.00 | 96 | 1015.8 | |
| 20260508105516 | 9 | 0.0 | 0.0 | 0.00 | 0.74 | 0.00 | 96 | 1015.6 | |
| 20260508104516 | 9 | 0.0 | 0.0 | 0.00 | 0.79 | 0.00 | 96 | 1015.6 | |
| 20260508103516 | 9 | 0.0 | 0.0 | 0.00 | 0.79 | 0.00 | 96 | 1015.8 | |
| 20260508102516 | 9 | 0.0 | 0.0 | 0.00 | 0.79 | 0.00 | 96 | 1015.4 | |
| 20260508101516 | 9 | 0.0 | 0.0 | 0.00 | 0.79 | 0.00 | 96 | 1015.3 | |
| 20260508100516 | 9 | 0.0 | 0.0 | 0.00 | 0.79 | 0.00 | 96 | 1015.2 | |
| 20260508095516 | 9 | 0.0 | 0.0 | 0.00 | 0.79 | 0.00 | 96 | 1015.1 | |
| 20260508094516 | 10 | 0.0 | 0.0 | 0.00 | 0.79 | 0.00 | 96 | 1015.1 | |
| 20260508093516 | 10 | 0.0 | 0.0 | 0.00 | 0.79 | 0.00 | 96 | 1015.0 | |
| 20260508092516 | 10 | 0.0 | 1.6 | 0.00 | 0.79 | 0.00 | 96 | 1015.1 | |
| 20260508091516 | 10 | 0.0 | 0.0 | 0.00 | 0.81 | 0.00 | 96 | 1014.8 | |
| 20260508090516 | 10 | 0.0 | 0.0 | 0.00 | 0.81 | 0.00 | 96 | 1014.9 | |
| 20260508085516 | 10 | 0.0 | 0.0 | 0.00 | 0.81 | 0.00 | 96 | 1014.8 | |
| 20260508084516 | 10 | 0.0 | 0.0 | 0.00 | 0.81 | 0.00 | 95 | 1014.8 | |
| 20260508083516 | 10 | 0.0 | 0.0 | 0.00 | 0.84 | 0.00 | 95 | 1014.6 | |
| 20260508082516 | 10 | 0.0 | 0.0 | 0.00 | 0.86 | 0.00 | 95 | 1014.5 | |
| 20260508081516 | 10 | 0.0 | 0.0 | 0.00 | 0.86 | 0.00 | 95 | 1014.5 | |
| 20260508080516 | 10 | 0.0 | 0.0 | 0.00 | 0.89 | 0.00 | 96 | 1014.3 | |
| 20260508075516 | 10 | 0.0 | 0.0 | 0.00 | 0.94 | 0.00 | 95 | 1014.3 | |
| 20260508074516 | 10 | 0.0 | 0.0 | 0.00 | 0.99 | 0.00 | 95 | 1014.3 | |
| 20260508073516 | 11 | 0.0 | 0.0 | 0.00 | 1.02 | 0.00 | 96 | 1014.2 | |
| 20260508072516 | 11 | 0.0 | 0.0 | 0.00 | 1.09 | 0.00 | 95 | 1014.1 | |
| 20260508071515 | 11 | 0.0 | 0.0 | 0.00 | 1.14 | 0.00 | 96 | 1014.0 | |
| 20260508070516 | 11 | 0.0 | 0.0 | 0.00 | 1.22 | 0.00 | 96 | 1014.0 | |
| 20260508065516 | 11 | 0.0 | 0.0 | 0.00 | 1.30 | 0.00 | 96 | 1014.0 | |
| 20260508064516 | 11 | 0.0 | 3.2 | 0.00 | 1.37 | 0.00 | 96 | 1013.9 | |
| 20260508063516 | 11 | 0.0 | 0.0 | 0.00 | 1.45 | 0.00 | 96 | 1013.9 | |
| 20260508062516 | 11 | 0.0 | 0.0 | 0.00 | 1.57 | 0.00 | 95 | 1013.9 | |
| 20260508061515 | 11 | 0.0 | 1.6 | 0.00 | 1.68 | 0.00 | 95 | 1013.9 | |
| 20260508060515 | 11 | 0.0 | 0.0 | 0.00 | 1.80 | 0.00 | 95 | 1013.9 | |
| 20260508055515 | 12 | 0.0 | 0.0 | 0.00 | 1.91 | 0.00 | 95 | 1013.9 | |
| 20260508054516 | 12 | 0.0 | 0.0 | 0.00 | 1.93 | 0.00 | 95 | 1013.9 | |
| 20260508053515 | 12 | 0.0 | 0.0 | 0.00 | 2.21 | 0.00 | 94 | 1013.9 | |
| 20260508052515 | 12 | 0.0 | 0.0 | 0.00 | 2.46 | 0.00 | 95 | 1013.8 | |
| 20260508051515 | 12 | 0.0 | 0.0 | 0.00 | 2.46 | 0.00 | 94 | 1013.7 | |
| 20260508050517 | 12 | 0.0 | 0.0 | 0.00 | 2.46 | 0.00 | 94 | 1013.7 | |
| 20260508045518 | 12 | 0.0 | 0.0 | 0.00 | 2.46 | 0.00 | 94 | 1013.5 | |
| 20260508044517 | 13 | 0.0 | 0.0 | 0.00 | 2.46 | 0.00 | 95 | 1013.5 | |
| 20260508043517 | 13 | 0.0 | 1.6 | 0.00 | 2.46 | 0.00 | 95 | 1013.5 | |
| 20260508042517 | 13 | 0.0 | 0.0 | 0.00 | 2.46 | 0.00 | 95 | 1013.3 | |
| 20260508041517 | 13 | 0.0 | 1.6 | 0.00 | 2.49 | 0.00 | 95 | 1013.3 | |
| 20260508040517 | 13 | 338 | 1.6 | 4.8 | 0.00 | 2.49 | 0.00 | 95 | 1013.2 |
| 20260508035517 | 13 | 0.0 | 1.6 | 0.00 | 2.49 | 2.49 | 94 | 1013.2 | |
| 20260508034516 | 13 | 0.0 | 1.6 | 0.00 | 2.49 | 2.49 | 94 | 1013.3 | |
| 20260508033517 | 13 | 0.0 | 0.0 | 0.00 | 2.49 | 2.49 | 94 | 1013.1 | |
| 20260508032516 | 13 | 0.0 | 0.0 | 0.00 | 2.49 | 2.49 | 94 | 1013.1 | |
| 20260508031517 | 14 | 0.0 | 0.0 | 0.00 | 2.54 | 2.49 | 94 | 1013.2 | |
| 20260508030516 | 14 | 0.0 | 0.0 | 0.00 | 2.84 | 2.49 | 94 | 1013.1 | |
| 20260508025516 | 14 | 0.0 | 0.0 | 0.00 | 3.00 | 2.49 | 94 | 1013.1 | |
| 20260508024516 | 14 | 0.0 | 3.2 | 0.00 | 3.10 | 2.49 | 94 | 1012.8 | |
| 20260508023516 | 14 | 0.0 | 0.0 | 0.00 | 3.15 | 2.49 | 94 | 1012.8 | |
| 20260508022516 | 15 | 0.0 | 0.0 | 0.00 | 3.28 | 2.49 | 93 | 1012.7 | |
| 20260508021517 | 15 | 0.0 | 0.0 | 0.00 | 3.35 | 2.49 | 93 | 1012.6 | |
| 20260508020516 | 15 | 0.0 | 0.0 | 0.00 | 3.43 | 2.49 | 93 | 1012.4 | |
| 20260508015517 | 15 | 0.0 | 0.0 | 0.00 | 3.43 | 2.49 | 93 | 1012.3 | |
| 20260508014516 | 15 | 338 | 1.6 | 4.8 | 0.00 | 3.78 | 2.49 | 93 | 1012.1 |
| 20260508013516 | 15 | 0.0 | 1.6 | 0.00 | 3.84 | 2.49 | 93 | 1011.8 | |
| 20260508012516 | 15 | 0.0 | 3.2 | 0.00 | 3.89 | 2.49 | 92 | 1011.7 | |
| 20260508011516 | 15 | 113 | 1.6 | 4.8 | 0.00 | 4.01 | 2.49 | 92 | 1011.4 |
| 20260508010516 | 15 | 293 | 1.6 | 3.2 | 0.00 | 4.09 | 2.49 | 92 | 1011.3 |
| 20260508005516 | 15 | 0.0 | 4.8 | 0.00 | 4.14 | 2.49 | 92 | 1011.0 | |
| 20260508004516 | 15 | 90 | 1.6 | 3.2 | 0.00 | 4.19 | 2.49 | 92 | 1011.1 |
| 20260508003516 | 15 | 0 | 1.6 | 4.8 | 0.00 | 4.24 | 2.49 | 92 | 1010.8 |
| 20260508002516 | 15 | 0 | 1.6 | 4.8 | 0.00 | 4.32 | 2.49 | 92 | 1010.3 |
| 20260508001516 | 15 | 338 | 3.2 | 9.7 | 0.00 | 4.45 | 2.49 | 92 | 1010.1 |
| 20260508000516 | 16 | 68 | 1.6 | 4.8 | 0.00 | 4.45 | 2.49 | 92 | 1010.1 |
| 20260507235516 | 16 | 0 | 3.2 | 6.4 | 0.00 | 4.52 | 2.49 | 92 | 1009.8 |
| 20260507234516 | 16 | 23 | 3.2 | 14.5 | 0.10 | 4.55 | 2.49 | 91 | 1009.5 |
| 20260507233516 | 16 | 135 | 1.6 | 4.8 | 0.33 | 4.55 | 2.49 | 91 | 1009.2 |
| 20260507232516 | 16 | 45 | 3.2 | 9.7 | 0.36 | 4.55 | 2.49 | 91 | 1008.8 |
| 20260507231516 | 16 | 0 | 6.4 | 17.7 | 0.36 | 4.55 | 2.49 | 90 | 1008.6 |
| 20260507230516 | 16 | 0 | 3.2 | 14.5 | 0.36 | 4.55 | 2.49 | 90 | 1008.9 |
| 20260507225516 | 17 | 0 | 4.8 | 14.5 | 0.36 | 4.55 | 2.49 | 89 | 1008.4 |
| 20260507224516 | 17 | 338 | 4.8 | 11.3 | 0.25 | 4.45 | 2.39 | 87 | 1008.3 |
| 20260507223516 | 18 | 0 | 6.4 | 14.5 | 0.03 | 4.22 | 2.16 | 82 | 1008.2 |
| 20260507222516 | 20 | 0 | 6.4 | 17.7 | 0.00 | 4.19 | 2.13 | 77 | 1007.8 |
| 20260507221516 | 22 | 0 | 6.4 | 14.5 | 0.00 | 4.19 | 2.13 | 71 | 1007.3 |
| 20260507220516 | 25 | 90 | 1.6 | 8.0 | 0.00 | 4.19 | 2.13 | 67 | 1007.1 |
| 20260507215516 | 25 | 113 | 1.6 | 8.0 | 0.00 | 4.19 | 2.13 | 68 | 1007.0 |
| 20260507214516 | 25 | 158 | 3.2 | 8.0 | 0.00 | 4.19 | 2.13 | 68 | 1006.8 |
| 20260507213516 | 25 | 158 | 1.6 | 8.0 | 0.00 | 4.19 | 2.13 | 67 | 1006.7 |
| 20260507212516 | 25 | 135 | 1.6 | 12.9 | 0.00 | 4.19 | 2.13 | 66 | 1006.5 |
| 20260507211516 | 25 | 158 | 3.2 | 12.9 | 0.00 | 4.19 | 2.13 | 68 | 1006.4 |
| 20260507210516 | 25 | 158 | 3.2 | 9.7 | 0.00 | 4.19 | 2.13 | 70 | 1006.6 |
| 20260507205516 | 25 | 158 | 1.6 | 8.0 | 0.00 | 4.19 | 2.13 | 69 | 1006.8 |
| 20260507204516 | 25 | 135 | 1.6 | 4.8 | 0.00 | 4.19 | 2.13 | 67 | 1006.6 |
| 20260507203516 | 25 | 158 | 1.6 | 4.8 | 0.00 | 4.19 | 2.13 | 67 | 1006.6 |
| 20260507202516 | 25 | 158 | 1.6 | 4.8 | 0.00 | 4.19 | 2.13 | 66 | 1006.4 |
| 20260507201516 | 25 | 135 | 1.6 | 4.8 | 0.00 | 4.19 | 2.13 | 68 | 1006.6 |
| 20260507200516 | 25 | 158 | 3.2 | 11.3 | 0.00 | 4.19 | 2.13 | 68 | 1006.8 |
| 20260507195516 | 25 | 158 | 3.2 | 14.5 | 0.00 | 4.19 | 2.13 | 67 | 1006.9 |
| 20260507194516 | 25 | 0.0 | 3.2 | 0.00 | 4.19 | 2.13 | 69 | 1007.1 | |
| 20260507193516 | 25 | 158 | 1.6 | 8.0 | 0.00 | 4.19 | 2.13 | 70 | 1007.1 |
| 20260507192516 | 25 | 158 | 3.2 | 12.9 | 0.00 | 4.19 | 2.13 | 66 | 1007.5 |
| 20260507191516 | 25 | 158 | 1.6 | 9.7 | 0.00 | 4.19 | 2.13 | 67 | 1007.7 |
| 20260507190516 | 25 | 135 | 1.6 | 8.0 | 0.00 | 4.19 | 2.13 | 69 | 1007.8 |
| 20260507185516 | 25 | 135 | 1.6 | 6.4 | 0.00 | 4.19 | 2.13 | 71 | 1007.8 |
| 20260507184516 | 24 | 0.0 | 3.2 | 0.00 | 4.19 | 2.13 | 72 | 1007.8 | |
| 20260507183516 | 23 | 158 | 3.2 | 11.3 | 0.00 | 4.19 | 2.13 | 74 | 1007.8 |
| 20260507182515 | 23 | 135 | 1.6 | 3.2 | 0.00 | 4.19 | 2.13 | 76 | 1007.8 |
| 20260507181516 | 22 | 113 | 1.6 | 4.8 | 0.00 | 4.19 | 2.13 | 80 | 1007.7 |
| 20260507180516 | 22 | 90 | 1.6 | 6.4 | 0.00 | 4.19 | 2.13 | 83 | 1007.6 |
| 20260507175515 | 22 | 113 | 1.6 | 4.8 | 0.00 | 4.19 | 2.13 | 87 | 1007.8 |
| 20260507174516 | 21 | 23 | 1.6 | 4.8 | 0.00 | 4.22 | 2.13 | 88 | 1008.0 |
| 20260507173515 | 21 | 45 | 1.6 | 6.4 | 0.03 | 4.29 | 2.13 | 90 | 1008.3 |
| 20260507172515 | 21 | 45 | 1.6 | 8.0 | 0.03 | 4.34 | 2.13 | 93 | 1008.5 |
| 20260507171517 | 20 | 0.0 | 4.8 | 0.03 | 4.34 | 2.13 | 93 | 1008.5 | |
| 20260507170517 | 20 | 0.0 | 1.6 | 0.03 | 4.34 | 2.13 | 96 | 1008.2 | |
| 20260507165517 | 20 | 0.0 | 3.2 | 0.03 | 4.34 | 2.13 | 95 | 1008.2 |